Location: Unspecified
(0.0000°N, 0.0000°E)
Time: 13:12:21
(UTC+00:00)

Hubble Space Telescope - Pass Details

Date: 20 October 2017
Orbit: 537 x 541 km, 28.5° (Epoch: 16 October)

Event Time Altitude Azimuth Distance (km) Brightness Sun altitude
Exits shadow 04:24:43 32° 220° (SW) 930 1.7 -19.7°
Maximum altitude 04:25:03 33° 210° (SSW) 919 1.7 -19.6°
Drops below altitude 10° 04:28:48 10° 145° (SE) 1,789 4.1 -18.7°
Sets 04:31:13 0° 135° (SE) 2,682 5.3 -18.1°
